Find Starlink 3533

NORAD ID: 51715 Int'l Des: 2022-016 Owner: SPXS Country: US Constellation: starlink operational
LEOCIRCULAR

リアルタイム位置

3D地球を読み込み中...

Starlink 3533について

説明を読み込み中...

次回通過

Passes for default location (London). Set your location on the main map for personalized predictions.

高度履歴

Loading altitude history...

軌道要素

1 51715U 22016B 26126.82934950 -.00000095 00000-0 12142-4 0 9996
2 51715 53.2179 68.1326 0001389 85.0179 275.0972 15.08837647233330
Epoch: May 6, 2026 • Age: 7 hours

現在のステータス

高度 540.6 km
速度 7.59 km/s
衛星直下点 0.71°N, 24.51°W
打ち上げ日 Feb 21, 2022
運用期間 4.2 years
タイプ internet

技術仕様

分類 Payload
質量 297.00 kg
乾燥質量 275.00 kg
総質量 297.00 kg
長さ 0.20 m
直径 2.80 m
スパン 9.00 m
形状 Box + pan
製造者 SPXS
バスタイプ Starlink
フェーズステータス In Orbit
所有者/国 SPXS/US

Most Searched